[[{"header":{"parameterUnit":"m.s-1","parameterCategory":1,"la1":30.2991,"la2":30.254,"lo1":-89.0895,"lo2":-89.0444,"dy":0.0017,"dx":0.0017,"nx":28,"ny":28,"refTime":"2025-08-03T21:00:00:Z","depth":0,"parameterNumber":2,"parameterNumberName":"U-component_of_WINDS"},"data":[0,0,0,0,0,0,0,0,0,0,0,0,0,0,0,0,0,0,0,0,0,0,0,0,0,0,0,0,0,0,0,0,0,0,0,0,0,0,0,0,0,0,0,0,0,0,0,0,0,0,0,0,0,0,0,0,0,0,1.1277,1.1279,0,1.1475,1.1477,1.148,1.1484,1.1481,1.1479,1.1476,1.1688,1.1695,1.1703,0,0,0,0,0,0,0,0,0,0,0,0,0,1.0913,1.092,1.1277,1.128,1.1282,1.1475,1.1477,1.148,1.1484,1.1481,1.1478,1.1475,1.1685,1.1694,1.1704,0,0,0,0,0,0,0,0,0,0,0,0,0,1.1087,1.0922,1.1277,1.1307,1.1312,1.1474,1.1478,1.1481,1.1485,1.1481,1.1477,1.1474,1.1682,1.1694,1.1705,1.1853,0,0,1.1742,1.1747,0,0,0,0,0,0,0,0,1.1077,1.1101,1.13,1.1305,1.1311,1.1451,1.1426,1.1606,1.1486,1.1419,1.1476,1.1472,1.1612,1.163,1.1675,1.1863,1.1872,1.1743,1.175,1.1755,1.1758,0,0,0,0,0,0,0,1.1065,1.1092,1.1356,1.1303,1.131,1.1314,1.1335,1.1461,1.1535,1.1425,1.1426,1.1449,1.1615,1.1664,1.168,1.1875,1.1742,1.1753,1.176,1.1765,1.22,1.2204,0,0,0,0,0,0,1.1046,1.1082,1.1349,1.1362,1.1182,1.1324,1.1347,1.141,1.1533,1.1548,1.1451,1.1448,1.1645,1.1666,1.1688,1.1873,1.1755,1.1766,1.1773,1.2196,1.2201,1.2206,0,0,0,0,0,0,1.1038,1.1069,1.1341,1.1222,1.1257,1.1334,1.1405,1.1416,1.1465,1.1553,1.1567,1.1488,1.1643,1.1671,1.1813,1.1881,1.1771,1.1782,1.2191,1.2197,1.2204,1.2243,0,0,0,0,0,0,1.1027,1.1067,1.1121,1.1223,1.1263,1.146,1.1409,1.1422,1.1484,1.1482,1.1591,1.1606,1.1642,1.1795,1.1825,1.1895,1.1792,1.2185,1.2194,1.2201,1.2236,1.225,1.2262,0,0,0,0,0,1.1014,1.1125,1.1124,1.1156,1.1333,1.1464,1.1487,1.1525,1.1489,1.1547,1.1605,1.1602,1.1867,1.1809,1.1843,1.1918,1.2181,1.2191,1.2201,1.223,1.2247,1.2262,0,0,0,0,0,0,1.1032,1.1139,1.1139,1.1285,1.1365,1.1464,1.1538,1.1541,1.1635,1.1629,1.1675,1.1699,1.1841,1.1893,1.1827,1.207,1.2021,1.2038,1.2031,1.2048,1.2061,1.2048,1.1802,0,0,0,0,0,1.1052,1.1146,1.1236,1.1357,1.1397,1.146,1.1519,1.1541,1.1627,1.1662,1.1729,1.1815,1.1919,1.1986,1.2085,1.2242,1.2269,1.2311,1.2324,1.2334,1.235,1.2442,1.2463,1.2239,1.2239,1.2238,0,0,1.1096,1.1166,1.1224,1.1362,1.1427,1.1528,1.1489,1.1596,1.1673,1.1679,1.1817,1.187,1.1969,1.212,1.219,1.2168,1.2417,1.2347,1.2354,1.2365,1.2454,1.2475,1.2494,1.2245,1.2244,1.2243,0,0,1.1228,1.1289,1.1398,1.1463,1.1561,1.1603,1.1629,1.1728,1.1763,1.1902,1.191,1.2003,1.2178,1.225,1.2309,1.2471,1.2475,1.2502,1.2572,1.2661,1.2679,1.2695,1.2758,1.2779,1.2517,1.2517,1.2517,0,1.1272,1.1421,1.1455,1.1563,1.1626,1.1633,1.1747,1.181,1.1936,1.1981,1.1953,1.2176,1.2243,1.2414,1.2453,1.2499,1.2535,1.2492,1.2673,1.269,1.2705,1.2766,1.2788,1.252,1.252,1.2519,1.2519,0,1.1472,1.1575,1.1652,1.1772,1.1844,1.1954,1.2008,1.2077,1.2093,1.2139,1.2283,1.2364,1.2482,1.2523,1.254,1.2698,1.2682,1.2663,1.2615,1.2729,1.2787,1.281,1.2524,1.2523,1.2522,1.2522,0,0,1.1622,1.176,1.1788,1.1844,1.1953,1.2036,1.2148,1.2261,1.2322,1.2408,1.2508,1.2656,1.2641,1.2708,1.2734,1.2812,1.2941,1.2784,1.2788,1.2815,1.3125,1.3142,1.3167,1.2942,1.2946,1.295,1.3118,0,1.177,1.1967,1.2002,1.2176,1.2275,1.2285,1.2383,1.2463,1.2509,1.2603,1.2655,1.2762,1.273,1.2772,1.2848,1.2909,1.3005,1.2896,1.304,1.3044,1.3019,1.3197,1.3214,1.3369,1.3141,1.3144,1.3147,0,1.1969,1.206,1.2243,1.2342,1.2385,1.2473,1.2581,1.2668,1.2761,1.2789,1.2865,1.2883,1.3005,1.2948,1.3119,1.3045,1.3106,1.3144,1.3151,1.317,1.3106,1.3225,1.3419,1.3444,1.3182,1.3179,1.3177,0,1.2066,1.2234,1.2367,1.2414,1.2531,1.2594,1.2646,1.2734,1.2801,1.2896,1.2941,1.305,1.3111,1.3197,1.3246,1.3199,1.3415,1.3361,1.3447,1.3446,1.3496,1.3493,1.3707,1.3527,1.3526,1.3526,1.3526,0,1.223,1.2344,1.2413,1.2495,1.2624,1.2663,1.2791,1.2843,1.2921,1.3017,1.3031,1.3121,1.3177,1.3276,1.3315,1.3454,1.348,1.351,1.352,1.3512,1.3509,1.3555,1.3548,1.3532,1.3531,1.353,1.3529,0,1.2362,1.2412,1.2558,1.2657,1.2684,1.2775,1.2862,1.2944,1.299,1.3111,1.3142,1.3215,1.3333,1.3388,1.3535,1.3561,1.3721,1.3721,1.3689,1.3694,1.3778,1.3771,1.4034,1.4073,1.3862,1.3864,1.3865,0,1.2466,1.2553,1.2661,1.2724,1.2778,1.288,1.2948,1.2992,1.3063,1.3176,1.3246,1.3364,1.3461,1.365,1.3719,1.3832,1.3838,1.3922,1.3856,1.3846,1.3846,1.3842,1.3853,1.3936,1.3938,1.3939,1.3941,0,1.2646,1.2667,1.2762,1.2869,1.2949,1.3035,1.312,1.3173,1.323,1.331,1.343,1.3505,1.3654,1.3773,1.3891,1.3949,1.3958,1.3961,1.3988,1.3982,1.3962,1.3979,1.3727,1.3956,1.3954,1.3953,1.3952,1.3952,1.277,1.285,1.2939,1.3047,1.3115,1.3194,1.3277,1.3333,1.3432,1.3556,1.3576,1.3705,1.3799,1.3958,1.402,1.4124,1.4105,1.4143,1.4153,1.4163,1.4171,1.3941,1.4146,1.4145,1.4145,1.4145,1.4144,0,1.2956,1.3013,1.3111,1.3229,1.3315,1.331,1.3405,1.3479,1.3591,1.3676,1.3771,1.3911,1.4027,1.4104,1.4223,1.4292,1.4299,1.4322,1.432,1.4334,1.4178,1.4145,1.4315,1.4315,1.4315,1.4315,1.4315,1.4315,1.3062,1.3198,1.323,1.3401,1.3459,1.3583,1.3638,1.3713,1.3782,1.3937,1.4032,1.408,1.4165,1.429,1.4398,1.4418,1.4463,1.4488,1.4509,1.4362,1.4345,1.4328,1.4298,1.4496,1.4496,1.4657,1.4658,1.466]},{"header":{"parameterUnit":"m.s-1","parameterCategory":1,"la1":30.2991,"la2":30.254,"lo1":-89.0895,"lo2":-89.0444,"dy":0.0017,"dx":0.0017,"nx":28,"ny":28,"refTime":"2025-08-03T21:00:00:Z","depth":0,"parameterNumber":3,"parameterNumberName":"V-component_of_WINDS"},"data":[0,0,0,0,0,0,0,0,0,0,0,0,0,0,0,0,0,0,0,0,0,0,0,0,0,0,0,0,0,0,0,0,0,0,0,0,0,0,0,0,0,0,0,0,0,0,0,0,0,0,0,0,0,0,0,0,0,0,-1.0606,-1.0606,0,-1.0609,-1.0609,-1.0609,-1.0724,-1.0727,-1.073,-1.0733,-1.0729,-1.0726,-1.0723,0,0,0,0,0,0,0,0,0,0,0,0,0,-1.0694,-1.0692,-1.0606,-1.0606,-1.0606,-1.0609,-1.0609,-1.0609,-1.0724,-1.0727,-1.0731,-1.0734,-1.073,-1.0726,-1.0723,0,0,0,0,0,0,0,0,0,0,0,0,0,-1.0672,-1.0691,-1.0606,-1.0664,-1.0669,-1.0609,-1.0609,-1.0609,-1.0723,-1.0727,-1.0732,-1.0736,-1.0731,-1.0726,-1.0722,-1.0604,0,0,-1.0709,-1.0707,0,0,0,0,0,0,0,0,-1.0673,-1.0669,-1.0655,-1.066,-1.0666,-1.0671,-1.0639,-1.0607,-1.0722,-1.0702,-1.0733,-1.0738,-1.0705,-1.0703,-1.0694,-1.0604,-1.0604,-1.0708,-1.0706,-1.0704,-1.0702,0,0,0,0,0,0,0,-1.0675,-1.0669,-1.0607,-1.0655,-1.0661,-1.0688,-1.069,-1.0633,-1.0678,-1.0704,-1.0713,-1.0712,-1.0709,-1.0698,-1.0694,-1.0604,-1.0708,-1.0704,-1.0702,-1.07,-1.0419,-1.0414,0,0,0,0,0,0,-1.0669,-1.067,-1.0607,-1.0607,-1.0681,-1.0683,-1.0685,-1.0665,-1.0679,-1.0686,-1.0708,-1.0717,-1.0703,-1.0699,-1.0695,-1.0557,-1.0704,-1.07,-1.0697,-1.0423,-1.0417,-1.0412,0,0,0,0,0,0,-1.0671,-1.0662,-1.0607,-1.0641,-1.0636,-1.0676,-1.0653,-1.0662,-1.0651,-1.0682,-1.069,-1.0688,-1.0706,-1.0701,-1.0627,-1.0559,-1.0698,-1.0694,-1.0429,-1.0422,-1.0415,-1.0281,0,0,0,0,0,0,-1.0673,-1.0662,-1.0619,-1.0639,-1.0634,-1.054,-1.0649,-1.0659,-1.0644,-1.0656,-1.0666,-1.0672,-1.0709,-1.0633,-1.0622,-1.0555,-1.069,-1.0435,-1.0426,-1.0417,-1.0292,-1.027,-1.0252,0,0,0,0,0,-1.0675,-1.058,-1.0616,-1.0608,-1.0581,-1.0536,-1.0532,-1.058,-1.0638,-1.0594,-1.0615,-1.0671,-1.0569,-1.0624,-1.0613,-1.0544,-1.044,-1.0428,-1.0418,-1.0301,-1.0275,-1.0253,0,0,0,0,0,0,-1.0547,-1.0583,-1.0624,-1.0533,-1.0531,-1.0555,-1.0501,-1.0551,-1.053,-1.0542,-1.06,-1.0601,-1.0517,-1.0524,-1.0585,-1.0431,-1.0514,-1.0501,-1.0429,-1.0404,-1.0385,-1.0383,-1.0687,0,0,0,0,0,-1.0509,-1.0472,-1.0504,-1.042,-1.0418,-1.0459,-1.0441,-1.0479,-1.0478,-1.0477,-1.0492,-1.0486,-1.0454,-1.043,-1.0401,-1.0295,-1.0298,-1.0242,-1.0222,-1.0206,-1.0192,-1.0136,-1.0111,-1.0376,-1.0377,-1.0377,0,0,-1.0428,-1.0443,-1.0415,-1.0395,-1.0398,-1.0355,-1.0457,-1.0408,-1.0377,-1.0469,-1.0399,-1.041,-1.0409,-1.0318,-1.0279,-1.0321,-1.012,-1.0192,-1.0178,-1.0174,-1.0122,-1.0096,-1.0074,-1.0369,-1.037,-1.0372,0,0,-1.0258,-1.0267,-1.0198,-1.02,-1.0204,-1.0233,-1.0216,-1.0234,-1.0246,-1.0179,-1.0246,-1.021,-1.0151,-1.0147,-1.0137,-0.997,-1.0021,-0.9959,-0.9853,-0.9797,-0.9776,-0.9758,-0.9696,-0.9673,-0.9946,-0.9946,-0.9946,0,-1.0156,-1.0097,-1.0155,-1.0102,-1.0091,-1.0176,-1.0105,-1.0103,-1.0096,-1.0085,-1.0134,-1.0064,-1.0069,-0.9978,-0.9937,-0.9927,-0.9908,-0.9956,-0.9775,-0.9757,-0.9741,-0.9682,-0.9659,-0.9938,-0.9939,-0.994,-0.994,0,-0.9971,-0.9929,-0.9872,-0.9867,-0.9849,-0.9787,-0.9834,-0.9809,-0.9849,-0.9872,-0.9802,-0.9812,-0.9787,-0.9769,-0.9806,-0.9683,-0.9709,-0.9766,-0.985,-0.9707,-0.9653,-0.9631,-0.9927,-0.993,-0.9932,-0.9934,0,0,-0.9716,-0.9746,-0.9724,-0.9723,-0.9735,-0.9703,-0.9645,-0.9623,-0.96,-0.9594,-0.9545,-0.9495,-0.9548,-0.9537,-0.9575,-0.9527,-0.9391,-0.959,-0.959,-0.955,-0.9254,-0.9209,-0.9182,-0.9427,-0.9423,-0.942,-0.9254,0,-0.955,-0.9455,-0.9506,-0.9402,-0.9364,-0.9446,-0.9395,-0.9396,-0.9417,-0.9386,-0.9409,-0.9372,-0.9447,-0.944,-0.9397,-0.9417,-0.9332,-0.943,-0.9379,-0.9377,-0.9373,-0.9154,-0.9106,-0.8948,-0.9233,-0.9229,-0.9227,0,-0.9343,-0.933,-0.9223,-0.9244,-0.923,-0.9184,-0.9168,-0.9139,-0.9141,-0.916,-0.9149,-0.92,-0.9143,-0.923,-0.9151,-0.9216,-0.9199,-0.9206,-0.9202,-0.9195,-0.929,-0.9139,-0.8899,-0.8874,-0.9195,-0.9197,-0.9199,0,-0.9164,-0.9121,-0.9052,-0.9048,-0.9071,-0.9037,-0.9044,-0.9053,-0.9036,-0.9023,-0.9012,-0.8991,-0.8978,-0.896,-0.9003,-0.9063,-0.8918,-0.9008,-0.8929,-0.8927,-0.8891,-0.8892,-0.8641,-0.8886,-0.8886,-0.8886,-0.8887,0,-0.8971,-0.8902,-0.8972,-0.8928,-0.8853,-0.8914,-0.8837,-0.8853,-0.886,-0.882,-0.889,-0.885,-0.8911,-0.8877,-0.8911,-0.8839,-0.8834,-0.8845,-0.8854,-0.8837,-0.8835,-0.8823,-0.8834,-0.888,-0.8882,-0.8883,-0.8884,0,-0.8757,-0.8802,-0.8731,-0.876,-0.8766,-0.8709,-0.8733,-0.8693,-0.8722,-0.867,-0.8661,-0.8703,-0.8667,-0.871,-0.8677,-0.8699,-0.8602,-0.8629,-0.86,-0.8607,-0.8524,-0.853,-0.8254,-0.822,-0.8489,-0.8487,-0.8485,0,-0.8629,-0.8578,-0.8603,-0.8583,-0.8587,-0.8553,-0.8538,-0.8596,-0.8577,-0.8578,-0.8537,-0.8509,-0.8488,-0.8426,-0.8453,-0.8428,-0.8452,-0.8358,-0.8449,-0.8433,-0.8447,-0.8448,-0.8443,-0.8337,-0.8334,-0.8332,-0.833,0,-0.8396,-0.8422,-0.8398,-0.8383,-0.8363,-0.8353,-0.8348,-0.8327,-0.8388,-0.8363,-0.8329,-0.8313,-0.8281,-0.825,-0.8233,-0.824,-0.8292,-0.8302,-0.8282,-0.8261,-0.8246,-0.825,-0.8546,-0.8306,-0.8309,-0.831,-0.8312,-0.8313,-0.8219,-0.8178,-0.8189,-0.8161,-0.8164,-0.8158,-0.8123,-0.8148,-0.8121,-0.8101,-0.8137,-0.8093,-0.8099,-0.8082,-0.8082,-0.8048,-0.8088,-0.8059,-0.8051,-0.8042,-0.8028,-0.8255,-0.8045,-0.8046,-0.8047,-0.8047,-0.8048,0,-0.7987,-0.8,-0.7974,-0.7966,-0.7943,-0.8001,-0.7999,-0.7976,-0.7937,-0.7939,-0.7918,-0.7879,-0.785,-0.7876,-0.7852,-0.7819,-0.7843,-0.781,-0.7811,-0.7811,-0.7995,-0.8014,-0.7791,-0.7791,-0.7791,-0.7791,-0.7791,-0.7791,-0.7864,-0.7796,-0.7823,-0.7758,-0.7771,-0.773,-0.7724,-0.7718,-0.772,-0.7674,-0.7651,-0.767,-0.7681,-0.7659,-0.7635,-0.7643,-0.7629,-0.7587,-0.7603,-0.7773,-0.7798,-0.7822,-0.784,-0.7584,-0.7584,-0.7422,-0.7421,-0.7419]}]]